{"data":{"norad_id":53191,"intl_designator":"2022-084C","name":"STARLINK-4369","alt_names":[],"object_type":"PAYLOAD","status":"ACTIVE","operator":null,"country":"US","launch_date":"2022-07-22","launch_site_code":"AFWTR","launch_vehicle":null,"mission":null,"orbit_class":"UNKNOWN","rcs_meters":null,"size_class":null,"mass_kg":null,"dimensions":null,"purposes":["comms"],"wikipedia_slug":null,"has_3d_model":false,"image_url":null,"decayed_at":null,"tle_current":{"epoch":"2026-05-25T03:56:03.971040Z","epoch_age_seconds":57362,"freshness":"FRESH","line1":"1 53191U 22084C   26145.16393485  .00053812  00000+0  22881-2 0  9993","line2":"2 53191  97.6003 205.9723 0001086  74.3377 285.7979 15.22831850210847","mean_motion":15.2283185,"eccentricity":0.0001086,"inclination_deg":97.6003,"raan_deg":205.9723,"arg_perigee_deg":74.3377,"mean_anomaly_deg":285.7979,"bstar":0.0022881,"rev_number":21084,"period_min":94.560669978107,"perigee_km":496.55702156828,"apogee_km":498.05036728711,"semimajor_km":6875.4406944277,"source":"CELESTRAK","updated_at":"2026-05-25T13:38:17.327688Z"}}}